Location: Newark
(36.3000°N, 3.6667°E)
Time: 09:14:52
(UTC+00:00)

Tiangong 2 - Visible Passes

Search period start: 17 July 2019 00:00
Search period end: 27 July 2019 00:00
Orbit: 378 x 386 km, 42.8° (Epoch: 17 July)

Date Brightness Start Highest point End Pass type
(mag) Time Alt. Az. Time Alt. Az. Time Alt. Az.
17 Jul 3.2 19:37:30 10° NW 19:40:06 23° N 19:42:42 10° ENE visible
17 Jul 2.3 21:14:17 10° NW 21:16:58 39° N 21:16:58 39° N visible
18 Jul 2.7 20:13:59 10° NW 20:16:47 29° NNE 20:19:08 13° ENE visible
18 Jul 3.9 21:50:33 10° WNW 21:51:17 16° WNW 21:51:17 16° WNW visible
19 Jul 1.2 20:50:12 10° WNW 20:53:18 63° NNE 20:53:28 61° NE visible
20 Jul 2.1 19:49:55 10° NW 19:52:53 39° NNE 19:55:41 11° E visible
20 Jul 3.4 21:26:38 10° WNW 21:27:50 19° W 21:27:50 19° W visible
21 Jul 1.0 20:26:09 10° WNW 20:29:16 75° SSW 20:30:03 46° SE visible
22 Jul 1.4 19:25:48 10° WNW 19:28:54 60° NNE 19:31:59 10° ESE visible
22 Jul 3.3 21:02:59 10° W 21:04:29 18° WSW 21:04:29 18° WSW visible
23 Jul 1.9 20:02:12 10° WNW 20:05:09 39° SSW 20:06:48 21° SSE visible
24 Jul 3.7 20:40:20 10° SW 20:41:06 11° SW 20:41:20 11° SW visible
25 Jul 3.0 19:38:30 10° W 19:40:56 21° SW 19:43:22 10° SSE visible
